Location: Alma
(38.7220°N, 88.9090°W)
Time: 16:29:28
(UTC-06:00)

Vanguard 2 Rocket - Pass Details

Date: 20 November 2019
Orbit: 554 x 3326 km, 32.9° (Epoch: 05 December)

Event Time Altitude Azimuth Distance (km) Brightness Sun altitude
Rises 04:09:10 0° 267° (W) 3,137 - -29.8°
Reaches altitude 10° 04:11:16 10° 260° (W) 2,405 - -29.4°
Exits shadow 04:15:57 41° 203° (SSW) 1,500 7.7 -28.5°
Maximum altitude 04:16:34 42° 190° (S) 1,528 7.9 -28.4°
Drops below altitude 10° 04:25:20 10° 123° (ESE) 3,967 10.9 -26.7°
Sets 04:29:48 0° 118° (ESE) 5,448 11.9 -25.8°
